Regional Weather Roundup
Issued by NWS Nashville, TN

Home | Current Version | Previous Version | Text Only | Print | Product List | Glossary On
Versions: 1 2 3 4 5 6 7 8 9 10 11 12 13 14 15 16 17 18 19 20 21 22 23 24 25 26 27 28
000
ASUS44 KOHX 251110
RWROHX
MIDDLE TENNESSEE HOURLY WEATHER ROUNDUP
NATIONAL WEATHER SERVICE NASHVILLE TN
600 AM CDT THU MAY 25 2017

NOTE: "FAIR" INDICATES FEW OR NO CLOUDS BELOW 12,000 FEET WITH
NO SIGNIFICANT WEATHER AND/OR OBSTRUCTIONS TO VISIBILITY.

* THESE REPORTS ARE NOT UNDER NWS QUALITY CONTROL AND MAY NOT
  REPORT WEATHER SUCH AS PRECIPITATION AND FOG.


TNZ005>011-023>034-057-059-062>066-078-080-251200
...NORTHERN MIDDLE TENNESSEE...

CITY           SKY/WX    TMP DP  RH WIND       PRES   REMARKS
CLARKSVILLE    CLOUDY    55  51  86 W10       29.63R
CROSSVILLE     CLOUDY    51  49  92 SW9       29.63R
GALLATIN       CLOUDY    55  52  88 SW6       29.64R
DICKSON        PTCLDY    50  49  96 W9        29.65R
LEBANON        CLOUDY    54  52  93 SW7       29.61R
NASHVILLE      MOCLDY    55  51  86 SW6       29.64R
PORTLAND       CLOUDY    55  52  88 SW7       29.60R
SMYRNA         CLOUDY    55  52  89 SW7       29.65R
SPARTA         CLOUDY    55  52  88 SW7G14    29.62R
SPRINGFIELD    CLOUDY    54  54 100 W10       29.62R
WEST NASHVILLE CLOUDY    54  52  94 SW7       29.62R
$$
TNZ056-058-060-061-075>077-079-093>097-251200
...SOUTHERN MIDDLE TENNESSEE...

CITY           SKY/WX    TMP DP  RH WIND       PRES   REMARKS
COLUMBIA       CLEAR     52  50  93 SW6       29.66R
FAYETTEVILLE   CLEAR     52  52 100 SW5       29.68R
MCMINNVILLE    PTCLDY    54  54 100 SW6       29.65R
MURFREESBORO   CLOUDY    54  51  89 SW6       29.64R
PULASKI        CLEAR     54  52  94 CALM      29.68R
SHELBYVILLE    CLEAR     50  50 100 S6        29.66R
TULLAHOMA      CLEAR     50  48  93 SW7       29.68R
WINCHESTER     MOCLDY    52  52 100 VRB5        N/A
$$


...KEY TO REMARKS...
VSB - VISIBILITY IN MILES
WCI - WIND CHILL INDEX
HX  - HEAT INDEX





USA.gov is the U.S. government's official web portal to all federal, state and local government web resources and services.